Погода в Светловодском

Россия / Кабардино-Балкарская Республика     43°53′46″N   43°10′51″E
темп.,
°C
ветер,
м/с
пор.,
м/с
влажн.,
%
обл.,
%
осадки,
мм/ч
давл.,
гПа
погр.,
м
14 июня, пн
пн1400:00+15юз22956 0.1 101314
03:00+14з22912 0.1 101311
06:00+16юз11864 0.0 101355
09:00+20вюв33750 0.0 1012696
12:00+22в44678 0.0 10121242
15:00+23вюв45646 0.1 10111425
18:00+22юв357669 0.1 1011350
21:00+18ююв33840 0.1 101132
15 июня, вт
вт1500:00+17ююв2288100 0.0 100913
03:00+17юв2286100 0.0 100819
06:00+18ююв1390100 1.2 1009120
09:00+21юв47774 1.2 1009611
12:00+24вюв556927 0.0 10091132
15:00+25вюв336687 0.1 10091255
18:00+24в127471 0.1 1010287
21:00+21ю117953 0.3 101011
16 июня, ср
ср1600:00+18ююз22850 0.0 100911
03:00+17ююз22890 0.0 100913
06:00+19юв23850 0.0 1009138
09:00+23вюв69750 0.0 1008765
12:00+25вюв78660 0.0 10071091
15:00+26вюв466428 0.0 10071295
18:00+26ю13715 0.0 1008564
21:00+21зсз22810 0.0 100911
17 июня, чт
чт1700:00+19зюз11870 0.0 100811
03:00+18зсз22900 0.0 100811
06:00+19ссз11877 0.0 100868
09:00+22с33740 0.0 1008681
12:00+25с456675 0.0 10081228
15:00+25сз576918 0.1 10091336
18:00+19з8139195 1.6 1012584
21:00+18зсз6148938 2.4 1013451
18 июня, пт
пт1800:00+16зсз410910 0.1 1014229
03:00+16з513910 0.1 1015406
06:00+17з411900 0.0 1016499
09:00+21сз58694 0.0 1015833
12:00+23ссз667246 0.0 10161182
15:00+22ссз56768 0.1 1016809
18:00+22сз35802 0.1 1016623
21:00+18з339018 0.1 101737